ROMMA est une association bénévole à but non lucratif. Votre soutien est indispensable : ADHERER à ROMMA ou FAIRE un DON

Taninges - (74, Haute-Savoie)

Vallée du Giffre (635 m)   Longitude: 06° 35' 38" E   Latitude: 46° 06' 21" N Station romma n°98
 

Détail journalier du     <<     >>

Température Precipitation Humidité Pression Vent Dir Rafale Dir. rafale Ensol.
Heure (°C) (mm) (%) (hPa) (km/h) (km/h) (min)
01:00 5.909510221E5E0
02:00 5.709510221ESE5E0
03:00 5.409510221E3E0
04:00 5.5096102303SE0
05:00 4.7095102306SSO0
06:00 5.20.29610231O5O0
07:00 5.609610242O6O5
08:00 6.109610242NE11O0
09:00 7.009510242SSE8SSE5
10:00 10.106810244OSO24O55
11:00 10.805510246NO31NO0
12:00 11.704910247SSE23ENE25
13:00 12.704610236ENE23SE50
14:00 13.404210237SE23ESE40
15:00 13.003910239S34E20
16:00 13.103910239ENE26ENE15
17:00 12.404210239SE34NO20
18:00 12.704310238ENE26E25
19:00 11.904310246ENE19OSO15
20:00 11.304510247ENE26N15
21:00 10.304910244ENE18N10
22:00 8.805710243N13ENE0
23:00 6.806410241N6ONO0
minuit 6.306710243ENE13ONO0

Graphique du 12-05-2019

 

Serveur OMMA